Regional Weather Roundup
Issued by NWS

Home | Current Version | Previous Version | Graphics & Text | Print | Product List | Glossary On
Versions: 1 2 3 4 5 6 7 8 9 10 11 12 13 14 15 16 17 18 19 20 21 22 23 24 25 26 27 28 29 30 31 32 33 34 35 36 37 38 39 40 41 42 43 44 45 46 47 48 49 50
000
ASUS44 KMEG 111700
RWRTN
TENNESSEE HOURLY STATE WEATHER ROUNDUP
NATIONAL WEATHER SERVICE MEMPHIS TN
1100 AM CST MON DEC 11 2017

TNZ002-004-019-021-049-052-054-088>092-111800-
WEST TENNESSEE

CITY           SKY/WX    TMP DP  RH WIND       PRES   REMARKS
MEMPHIS INTL   SUNNY     58  29  33 SW8       30.12F
NWS MEMPHIS      N/A     56 N/A N/A MISG        N/A
JACKSON        SUNNY     57  30  35 SW8G20    30.09F
DYERSBURG      SUNNY     57  28  33 SW16      30.07F
$$

TNZ008-025-027-028-033-062-065-066-111800-
NORTH MIDDLE TENNESSEE

CITY           SKY/WX    TMP DP  RH WIND       PRES   REMARKS
NASHVILLE      SUNNY     53  30  41 SW10      30.10F
CLARKSVILLE    SUNNY     50  28  42 S13       30.07F
SMYRNA         SUNNY     52  31  44 S9        30.10F
CROSSVILLE     SUNNY     48  27  44 S9        30.08F
$$

TNZ061-075-076-078-094-096-097-111800-
SOUTH MIDDLE TENNESSEE

CITY           SKY/WX    TMP DP  RH WIND       PRES   REMARKS
$$

TNZ017-018-042-046-047-111800-
NORTHEAST TENNESSEE

CITY           SKY/WX    TMP DP  RH WIND       PRES   REMARKS
TRI CITIES     MOSUNNY   43  27  53 CALM      30.09F
$$

TNZ012-013-036-069-073-074-111800-
CENTRAL EAST TENNESSEE

CITY           SKY/WX    TMP DP  RH WIND       PRES   REMARKS
KNOXVILLE      SUNNY     48  32  53 SW10      30.09F
OAK RIDGE      SUNNY     45  29  53 VRB3      30.12F
$$

TNZ083-085-099-111800-
SOUTHEAST TENNESSEE

CITY           SKY/WX    TMP DP  RH WIND       PRES   REMARKS
CHATTANOOGA    SUNNY     49  29  46 SW6       30.13F
$$

SKY/WX REPORTED AS FAIR MEANS FEW OR NO CLOUDS BELOW
12 THOUSAND FEET.




USA.gov is the U.S. government's official web portal to all federal, state and local government web resources and services.